Regional Weather Roundup
Issued by NWS

Home | Current Version | Previous Version | Graphics & Text | Print | Product List | Glossary On
Versions: 1 2 3 4 5 6 7 8 9 10 11 12 13 14 15 16 17 18 19 20 21 22 23 24 25 26 27 28 29 30 31 32 33 34 35 36 37 38 39 40 41 42 43 44 45 46 47 48 49 50
000
ASUS45 KCYS 281710
RWRWY

WYOMING REGIONAL WEATHER ROUNDUP
NATIONAL WEATHER SERVICE CHEYENNE WY
1100 AM MDT THU JUL 28 2016

NOTE:  "FAIR" INDICATES FEW OR NO CLOUDS BELOW 12,000 FEET
WITH NO SIGNIFICANT WEATHER AND/OR OBSTRUCTIONS TO VISIBILITY.

WYZ001-281800-
YELLOWSTONE NATIONAL PARK

CITY           SKY/WX    TMP DP  RH WIND       PRES   REMARKS
LK YELLOWSTONE   N/A     60  47  61 VRB3      30.40F
W YELLOWSTONE  NOT AVBL

$$
WYZ002>013-054>058-071-098>099-281800-
NORTHERN WYOMING

CITY           SKY/WX    TMP DP  RH WIND       PRES   REMARKS
JACKSON        SUNNY     70  39  32 CALM      30.29F
CODY           FAIR      70  52  52 NE8       30.25F
GREYBULL       FAIR      73  54  51 CALM      30.18F
WORLAND        FAIR      71  53  52 W3        30.20F
SHERIDAN       FAIR      72  55  55 N5        30.22S
BUFFALO        FAIR      68  52  56 VRB5      30.27F
GILLETTE       PTSUNNY   65  59  81 NW9       30.22R
HULETT         CLOUDY    61  59  94 SW6       30.23R
NEWCASTLE      FAIR      59  54  82 NW13G24   30.22R

$$
WYZ014>020-022>026-101>103-281800-
CENTRAL WYOMING

CITY           SKY/WX    TMP DP  RH WIND       PRES   REMARKS
BIG PINEY      FAIR      72  36  26 VRB7      30.32F
PINEDALE       FAIR      73  32  21 E6        30.33S
DUBOIS         FAIR      68  45  42 E3        30.34F
LANDER         FAIR      73  48  41 VRB3      30.24F
RIVERTON       FAIR      71  49  45 E6        30.26F
CASPER         FAIR      71  48  43 E10G20    30.26F
DOUGLAS          N/A    N/A N/A N/A MISG      30.26F

$$
WYZ021-027>030-104>119-281800-
SOUTHERN WYOMING

CITY           SKY/WX    TMP DP  RH WIND       PRES   REMARKS
EVANSTON       FAIR      82  30  15 NE7       30.34S
KEMMERER         N/A     81  28  15 SW6       30.35S
FORT BRIDGER   FAIR      81  29  15 W5        30.35F
ROCK SPRINGS   FAIR      74  46  36 SE7       30.31F
DIXON          FAIR      76  31  19 CALM      30.31S
RAWLINS        FAIR      70  52  52 E9        30.32F
SARATOGA       FAIR      70  50  49 N7        30.33F
LARAMIE        PTSUNNY   67  52  58 N14       30.34R
CHEYENNE       PTSUNNY   66  57  72 N6        30.29S
TORRINGTON     PTSUNNY   64  61  90 SE8       30.22S
PINE BLUFFS    CLOUDY    64  55  72 NE14      30.27R

$$



USA.gov is the U.S. government's official web portal to all federal, state and local government web resources and services.